This is the latest recevied weather packets stored in our database for station/object KD0RIH. If no packets are shown the sender has not sent any weather packets the latest 10 day(s).
| Time | Temp. | Humidity | Pressure | Rain* | Wind** | Luminosity | Snow |
|---|---|---|---|---|---|---|---|
| 1777636581 | 3.89° C | 88% | 1018.7 hPa | 0 mm | - | 41 W/m² | - |
| 1777636277 | 3.89° C | 88% | 1018.7 hPa | 0 mm | - | 35 W/m² | - |
| 1777635977 | 3.89° C | 88% | 1018.6 hPa | 0 mm | - | 29 W/m² | - |
| 1777635674 | 3.33° C | 88% | 1018.5 hPa | 0 mm | - | 21 W/m² | - |
| 1777635370 | 3.33° C | 86% | 1018.7 hPa | 0 mm | - | 16 W/m² | - |
| 1777635067 | 3.33° C | 86% | 1018.4 hPa | 0 mm | - | 12 W/m² | - |
| 1777634763 | 2.78° C | 86% | 1018.4 hPa | 0 mm | - | 8 W/m² | - |
| 1777634461 | 3.33° C | 85% | 1018.3 hPa | 0 mm | - | 6 W/m² | - |
| 1777634157 | 3.33° C | 86% | 1018.2 hPa | 0 mm | - | 4 W/m² | - |
| 1777633854 | 3.33° C | 86% | 1018.4 hPa | 0 mm | - | 2 W/m² | - |
| 1777633552 | 3.33° C | 86% | 1018.3 hPa | 0 mm | - | 1 W/m² | - |
| 1777633249 | 2.78° C | 85% | 1018.2 hPa | 0 mm | - | 0 W/m² | - |
| 1777632947 | 3.33° C | 84% | 1018.1 hPa | 0 mm | - | 0 W/m² | - |
| 1777632643 | 3.33° C | 84% | 1018.4 hPa | 0 mm | - | 0 W/m² | - |
| 1777632339 | 3.33° C | 84% | 1018.4 hPa | 0 mm | - | 0 W/m² | - |
| 1777632036 | 3.33° C | 84% | 1018.3 hPa | 0 mm | - | 0 W/m² | - |
| 1777631734 | 3.33° C | 82% | 1018.4 hPa | 0 mm | - | 0 W/m² | - |
| 1777631432 | 3.33° C | 82% | 1018.2 hPa | 0 mm | - | 0 W/m² | - |
| 1777631128 | 3.89° C | 82% | 1018.4 hPa | 0 mm | - | 0 W/m² | - |
| 1777630826 | 3.89° C | 83% | 1018.4 hPa | 0 mm | - | 0 W/m² | - |
| 1777630522 | 3.89° C | 82% | 1018.4 hPa | 0 mm | - | 0 W/m² | - |
| 1777630218 | 3.89° C | 83% | 1018.5 hPa | 0 mm | - | 0 W/m² | - |
| 1777629917 | 3.33° C | 84% | 1018.5 hPa | 0 mm | - | 0 W/m² | - |
| 1777629614 | 3.33° C | 84% | 1018.4 hPa | 0 mm | - | 0 W/m² | - |
| 1777629310 | 3.89° C | 84% | 1018.5 hPa | 0 mm | - | 0 W/m² | - |
* Rain latest hour (hover to see other rain measurements)
** Current wind speed in m/s (hover to see current wind gust speed)